Temp
-8 -8 -8 -8 -9 -9 -9 -10 -10 -11 -11 -11 -11 -11 -10 -10 -10 -10 -10 -9 -9 -10 -10 -10 -9 -9 -9 -10 -9 -9 -9 -9 -9 -9 -8 -8 -9 -9 -9 -9 -9 -9 -9
-8 -8 -8 -8 -8 -9 -9 -10 -10 -11 -11 -11 -11 -11 -11 -10 -10 -10 -10 -10 -10 -9 -9 -9 -9 -9 -9 -9 -9 -9 -9 -9 -9 -9 -9 -9 -9 -9 -9 -9 -9 -9 -9
-8 -8 -8 -8 -8 -8 -9 -9 -10 -10 -10 -10 -11 -10 -10 -10 -10 -10 -10 -10 -9 -9 -9 -9 -9 -9 -8 -8 -8 -8 -8 -8 -8 -8 -9 -9 -9 -9 -9 -9 -9 -9 -9
-8 -8 -8 -8 -8 -8 -9 -9 -9 -10 -10 -10 -10 -10 -10 -10 -10 -10 -9 -9 -9 -9 -9 -9 -9 -8 -8 -8 -8 -8 -8 -8 -9 -9 -9 -9 -9 -9 -9 -9 -9 -9 -9
-8 -8 -8 -8 -8 -8 -8 -9 -9 -9 -9 -9 -9 -10 -9 -9 -9 -9 -9 -9 -9 -9 -9 -9 -9 -8 -8 -8 -8 -9 -9 -9 -9 -9 -9 -9 -9 -9 -9 -9 -9 -9 -9
-8 -8 -8 -8 -8 -8 -8 -8 -9 -9 -9 -9 -9 -9 -9 -9 -9 -9 -9 -9 -9 -9 -9 -9 -9 -8 -8 -8 -8 -9 -9 -9 -9 -9 -9 -9 -9 -9 -9 -9 -9 -10 -10
-8 -8 -8 -8 -8 -8 -8 -8 -8 -9 -9 -9 -9 -9 -9 -9 -9 -9 -9 -8 -9 -9 -9 -8 -8 -8 -8 -8 -9 -9 -9 -9 -9 -9 -9 -9 -9 -9 -9 -9 -9 -9 -10
-8 -8 -8 -8 -8 -8 -8 -8 -9 -9 -9 -9 -9 -9 -9 -9 -9 -9 -9 -9 -9 -8 -8 -9 -9 -9 -9 -9 -9 -10 -10 -10 -10 -10 -9 -9 -9 -9 -9 -9 -9 -9 -9
-8 -8 -8 -8 -8 -8 -8 -9 -9 -9 -9 -9 -9 -9 -9 -9 -9 -9 -9 -9 -9 -9 -9 -9 -9 -9 -9 -9 -10 -10 -10 -10 -9 -9 -9 -9 -9 -9 -9 -9 -9 -9 -9
-8 -8 -8 -8 -8 -9 -9 -8 -8 -9 -9 -9 -9 -9 -9 -9 -9 -9 -9 -9 -9 -9 -9 -9 -10 -10 -10 -10 -10 -10 -9 -9 -9 -9 -9 -9 -10 -9 -9 -9 -9 -9 -9
-9 -9 -9 -9 -9 -8 -8 -8 -9 -9 -9 -9 -9 -8 -8 -9 -9 -9 -9 -9 -9 -9 -9 -10 -10 -10 -10 -10 -10 -10 -10 -10 -10 -10 -10 -10 -10 -9 -9 -9 -9 -9 -9
-9 -9 -9 -9 -9 -9 -8 -8 -8 -8 -9 -9 -9 -9 -9 -9 -9 -9 -9 -9 -9 -9 -9 -9 -9 -10 -10 -10 -10 -10 -10 -10 -10 -10 -10 -10 -10 -10 -10 -9 -9 -9 -9
-9 -9 -9 -9 -9 -9 -9 -9 -9 -8 -8 -9 -9 -9 -9 -9 -9 -9 -9 -9 -9 -9 -9 -9 -9 -9 -9 -9 -9 -10 -10 -10 -10 -9 -9 -10 -10 -10 -10 -10 -10 -9 -10
-9 -9 -9 -9 -9 -9 -9 -9 -9 -9 -9 -9 -9 -9 -9 -9 -9 -9 -9 -9 -10 -10 -10 -9 -9 -9 -9 -9 -9 -9 -9 -9 -9 -9 -9 -9 -9 -9 -10 -10 -10 -10 -10
-9 -9 -9 -9 -9 -9 -9 -9 -9 -9 -9 -9 -9 -9 -9 -9 -9 -9 -9 -9 -9 -10 -10 -10 -10 -10 -10 -10 -10 -9 -9 -9 -9 -9 -9 -9 -9 -9 -9 -10 -10 -10 -10
-9 -9 -9 -9 -9 -9 -9 -9 -9 -9 -9 -9 -9 -9 -9 -9 -9 -9 -9 -9 -9 -10 -10 -10 -10 -10 -10 -10 -10 -10 -10 -10 -10 -10 -10 -10 -10 -10 -10 -10 -10 -10 -10
-9 -9 -9 -9 -9 -9 -9 -9 -9 -9 -9 -9 -9 -9 -9 -9 -9 -9 -9 -9 -9 -9 -10 -10 -10 -10 -10 -10 -10 -10 -10 -10 -10 -10 -10 -10 -10 -10 -10 -10 -10 -10 -10
-9 -9 -9 -9 -9 -9 -9 -9 -9 -9 -10 -10 -10 -9 -10 -10 -10 -10 -10 -10 -10 -10 -10 -10 -10 -10 -10 -10 -10 -10 -10 -10 -10 -10 -10 -10 -10 -10 -10 -10 -10 -10 -11
-9 -9 -9 -10 -10 -10 -10 -10 -9 -10 -10 -10 -10 -10 -10 -10 -10 -10 -10 -10 -10 -10 -10 -10 -10 -10 -10 -10 -10 -10 -11 -11 -11 -11 -10 -10 -10 -10 -10 -10 -11 -10 -11
-10 -10 -10 -10 -10 -9 -9 -10 -10 -10 -10 -10 -9 -9 -10 -10 -9 -9 -9 -9 -10 -10 -10 -10 -10 -10 -10 -10 -10 -10 -10 -10 -10 -10 -11 -11 -11 -11 -11 -11 -11 -11 -11
-10 -10 -10 -10 -10 -10 -9 -10 -10 -10 -10 -10 -10 -10 -10 -10 -10 -9 -9 -10 -10 -10 -10 -10 -10 -10 -10 -10 -10 -10 -10 -10 -10 -10 -10 -11 -11 -11 -11 -11 -11 -11 -11
-10 -10 -10 -10 -10 -10 -10 -10 -10 -10 -9 -10 -10 -10 -10 -10 -10 -10 -10 -10 -10 -10 -10 -10 -10 -10 -10 -10 -10 -10 -10 -11 -11 -11 -11 -11 -11 -11 -11 -11 -11 -11 -11
-10 -10 -10 -10 -10 -10 -10 -10 -10 -10 -10 -10 -10 -10 -10 -10 -10 -10 -11 -11 -11 -11 -11 -11 -11 -11 -11 -11 -11 -11 -11 -11 -11 -11 -11 -11 -11 -11 -11 -11 -11 -12 -11
-10 -10 -11 -11 -11 -10 -10 -10 -10 -10 -10 -10 -10 -10 -10 -11 -11 -11 -11 -11 -11 -11 -11 -11 -11 -12 -12 -12 -12 -12 -12 -12 -12 -11 -12 -12 -12 -12 -12 -13 -12 -12 -12
-11 -11 -10 -11 -10 -10 -10 -10 -10 -10 -11 -11 -11 -11 -11 -11 -11 -11 -11 -11 -11 -11 -11 -11 -12 -12 -12 -13 -13 -13 -13 -13 -13 -13 -12 -13 -13 -13 -14 -13 -13 -13 -13
-11 -11 -11 -11 -11 -11 -11 -11 -11 -11 -11 -11 -11 -11 -11 -11 -11 -11 -11 -12 -12 -12 -12 -12 -12 -13 -13 -14 -14 -14 -14 -14 -14 -14 -13 -13 -13 -14 -14 -14 -14 -14 -14
Height
5873 5872 5869 5866 5863 5860 5858 5857 5857 5857 5857 5857 5858 5858 5859 5860 5861 5862 5861 5861 5861 5862 5863 5863 5866 5867 5868 5870 5873 5875 5875 5877 5878 5879 5880 5881 5883 5885 5886 5887 5887 5886 5887
5875 5873 5871 5868 5867 5864 5860 5859 5858 5859 5859 5859 5860 5860 5860 5862 5863 5864 5865 5865 5865 5866 5867 5868 5870 5871 5873 5874 5875 5876 5877 5878 5879 5879 5881 5883 5885 5886 5886 5887 5886 5887 5888
5876 5875 5874 5872 5869 5867 5865 5863 5863 5862 5862 5862 5862 5862 5863 5864 5865 5866 5867 5868 5869 5870 5870 5871 5872 5874 5875 5876 5877 5877 5877 5879 5879 5880 5881 5883 5885 5887 5888 5888 5887 5888 5887
5878 5876 5875 5874 5873 5871 5869 5868 5867 5867 5866 5866 5866 5867 5867 5867 5867 5867 5868 5870 5871 5872 5873 5874 5874 5875 5876 5877 5878 5878 5879 5880 5881 5882 5884 5885 5886 5887 5887 5887 5887 5886 5887
5878 5876 5875 5875 5875 5874 5872 5871 5871 5871 5870 5870 5869 5868 5868 5868 5869 5869 5870 5872 5873 5874 5874 5875 5876 5876 5877 5878 5878 5878 5880 5881 5882 5884 5884 5885 5886 5886 5886 5887 5886 5885 5884
5879 5877 5876 5876 5875 5875 5874 5873 5873 5873 5873 5873 5873 5873 5872 5871 5872 5872 5873 5872 5873 5874 5875 5876 5876 5877 5878 5878 5879 5880 5880 5881 5883 5884 5884 5885 5885 5885 5885 5884 5884 5884 5883
5881 5879 5878 5877 5876 5876 5876 5876 5876 5876 5876 5875 5875 5875 5875 5875 5875 5874 5874 5874 5874 5874 5875 5877 5877 5878 5879 5878 5879 5880 5881 5882 5883 5883 5883 5884 5883 5883 5883 5882 5882 5881 5881
5882 5881 5880 5879 5878 5878 5878 5878 5878 5878 5878 5878 5878 5878 5878 5877 5877 5878 5877 5877 5877 5876 5877 5876 5877 5878 5879 5880 5881 5881 5882 5882 5883 5883 5883 5883 5882 5881 5880 5880 5879 5879 5878
5883 5881 5881 5881 5880 5880 5880 5880 5880 5879 5879 5879 5879 5879 5880 5880 5880 5880 5880 5880 5879 5879 5879 5880 5879 5879 5879 5880 5881 5882 5883 5883 5883 5883 5883 5882 5881 5880 5879 5877 5877 5876 5875
5883 5882 5882 5882 5881 5881 5881 5881 5881 5881 5880 5881 5881 5880 5880 5880 5881 5881 5881 5881 5881 5882 5882 5882 5882 5882 5882 5882 5882 5882 5882 5882 5881 5881 5881 5880 5879 5878 5876 5875 5874 5874 5873
5883 5883 5883 5883 5882 5882 5882 5881 5881 5882 5882 5881 5881 5881 5881 5881 5881 5881 5881 5881 5881 5882 5882 5882 5882 5882 5882 5882 5882 5882 5881 5881 5880 5879 5878 5878 5877 5876 5875 5874 5873 5872 5871
5883 5883 5883 5883 5883 5883 5882 5882 5881 5882 5882 5882 5883 5882 5882 5882 5882 5882 5882 5882 5882 5882 5882 5882 5881 5881 5881 5881 5881 5880 5879 5879 5878 5877 5876 5875 5874 5873 5872 5871 5870 5870 5869
5881 5882 5882 5882 5882 5882 5882 5882 5882 5882 5882 5881 5881 5881 5881 5881 5880 5880 5880 5881 5881 5881 5881 5881 5880 5880 5880 5879 5879 5878 5877 5875 5874 5874 5873 5872 5871 5870 5870 5868 5867 5865 5864
5879 5879 5880 5880 5880 5881 5881 5881 5881 5881 5881 5881 5881 5880 5880 5879 5879 5878 5878 5878 5877 5877 5878 5878 5878 5878 5878 5878 5877 5876 5875 5873 5872 5871 5870 5869 5868 5867 5866 5865 5864 5863 5861
5876 5876 5876 5877 5877 5878 5879 5879 5879 5879 5879 5879 5879 5879 5878 5878 5877 5876 5876 5875 5875 5874 5874 5873 5873 5872 5872 5872 5872 5871 5870 5870 5870 5869 5867 5865 5863 5862 5861 5860 5858 5857 5856
5873 5873 5873 5873 5873 5874 5874 5875 5875 5875 5875 5876 5875 5875 5875 5875 5874 5873 5873 5872 5872 5871 5870 5869 5869 5868 5867 5866 5865 5865 5864 5863 5862 5861 5861 5859 5857 5855 5853 5852 5851 5850 5848
5868 5869 5869 5869 5869 5870 5870 5870 5870 5870 5870 5870 5871 5870 5870 5870 5869 5868 5868 5867 5867 5866 5865 5864 5863 5862 5861 5860 5860 5859 5858 5856 5855 5853 5852 5851 5848 5846 5845 5844 5842 5840 5838
5862 5863 5864 5864 5865 5866 5866 5866 5866 5865 5865 5864 5864 5864 5864 5863 5863 5862 5862 5861 5860 5859 5858 5857 5856 5856 5854 5853 5853 5851 5851 5850 5847 5845 5843 5841 5839 5838 5837 5836 5834 5832 5830
5858 5859 5859 5859 5859 5860 5860 5860 5860 5860 5859 5858 5858 5858 5857 5856 5855 5855 5854 5853 5852 5851 5851 5849 5848 5847 5846 5846 5845 5844 5842 5840 5838 5836 5833 5833 5831 5829 5826 5825 5822 5820 5820
5853 5853 5854 5855 5854 5854 5854 5854 5854 5854 5853 5853 5852 5852 5851 5849 5849 5848 5847 5845 5844 5842 5841 5840 5839 5837 5837 5837 5835 5834 5832 5830 5827 5825 5824 5822 5819 5817 5816 5815 5813 5811 5810
5847 5848 5849 5850 5849 5849 5848 5848 5848 5848 5848 5847 5846 5845 5844 5843 5841 5840 5839 5839 5837 5836 5834 5832 5829 5827 5825 5824 5822 5822 5819 5817 5814 5812 5809 5808 5806 5804 5802 5800 5798 5797 5795
5841 5842 5843 5843 5841 5841 5841 5841 5841 5841 5840 5839 5838 5838 5837 5836 5834 5832 5832 5831 5829 5828 5826 5824 5821 5817 5814 5813 5810 5807 5808 5806 5803 5798 5797 5794 5791 5790 5787 5786 5783 5782 5780
5833 5835 5835 5834 5834 5834 5834 5833 5833 5833 5833 5832 5832 5830 5829 5829 5827 5826 5824 5823 5820 5818 5816 5813 5810 5807 5804 5801 5798 5795 5793 5792 5792 5790 5785 5779 5776 5773 5771 5769 5767 5764 5762
5824 5826 5827 5827 5827 5828 5827 5827 5826 5826 5825 5825 5825 5824 5823 5822 5821 5819 5817 5815 5812 5810 5807 5804 5801 5798 5794 5790 5785 5781 5778 5776 5776 5780 5775 5769 5763 5759 5755 5752 5749 5746 5743
5814 5816 5818 5819 5819 5820 5820 5821 5820 5820 5820 5820 5819 5818 5817 5816 5815 5813 5810 5808 5805 5802 5798 5795 5792 5788 5785 5781 5776 5771 5768 5763 5759 5758 5760 5759 5754 5747 5742 5736 5732 5729 5725
5805 5808 5809 5810 5811 5812 5813 5813 5814 5814 5814 5814 5813 5811 5810 5808 5807 5805 5803 5800 5797 5794 5791 5787 5783 5779 5775 5770 5767 5763 5758 5753 5748 5744 5742 5740 5740 5739 5731 5727 5720 5713 5708
Wind_Speed
15 16 18 18 19 22 22 23 23 22 20 18 16 16 18 17 17 16 16 16 18 17 18 18 16 13 15 20 16 16 15 14 12 11 11 11 14 14 12 10 6 3 2
13 15 19 20 19 22 23 23 22 20 18 17 15 14 14 14 14 15 14 14 13 14 15 14 12 11 11 13 13 12 11 10 11 10 11 15 14 10 7 4 2 2 2
13 15 18 21 21 22 24 24 23 21 19 16 14 12 11 10 11 12 12 11 10 9 11 12 11 9 9 9 9 8 8 9 11 13 16 14 10 6 3 1 1 3 3
16 16 16 19 20 22 23 24 23 21 19 17 15 11 9 8 9 10 11 10 9 7 7 8 10 9 7 7 7 8 9 11 14 17 15 12 9 6 3 2 3 3 5
18 20 18 16 18 19 21 22 21 20 19 17 16 14 11 10 8 7 6 7 7 8 7 6 5 7 7 7 7 7 9 13 16 14 12 10 7 5 5 5 4 5 6
19 20 20 19 17 17 18 19 20 19 18 17 17 16 14 11 9 6 6 6 4 5 7 8 7 4 4 4 6 8 12 16 15 13 11 9 8 7 7 7 6 6 8
19 21 20 19 19 17 15 16 16 17 16 16 16 16 16 15 11 8 6 6 6 6 6 7 7 7 7 7 8 9 13 14 13 12 11 11 9 9 10 10 10 9 10
13 17 19 19 18 17 16 15 13 13 13 12 12 13 12 12 13 12 11 7 5 6 7 6 6 6 6 8 9 12 13 13 12 11 11 11 11 13 12 13 13 14 14
10 12 13 15 17 17 16 15 15 13 11 10 9 9 9 9 9 9 8 8 9 9 7 7 9 10 10 10 10 10 10 10 12 12 13 15 15 16 15 15 16 16 12
6 9 9 10 11 13 14 16 15 13 12 11 8 7 6 5 5 5 5 5 4 3 3 3 4 4 6 7 9 11 12 14 15 16 18 18 18 17 17 18 16 14 13
4 5 6 7 9 9 9 10 11 12 12 11 9 8 6 5 4 3 2 1 2 2 2 2 4 5 6 7 9 11 13 15 16 18 18 18 19 20 20 19 17 15 15
5 5 4 4 4 5 6 7 8 9 10 11 11 11 9 7 6 5 5 4 4 4 6 7 8 9 10 11 12 14 16 17 18 20 20 21 21 22 20 19 18 19 18
8 6 6 6 5 6 6 6 7 7 8 8 7 7 7 6 5 5 5 6 7 8 8 9 10 12 14 15 16 17 19 21 23 23 24 24 24 24 24 24 23 22 21
11 9 9 8 9 9 9 9 9 9 7 7 8 10 9 8 7 6 5 4 4 6 8 10 12 14 15 17 19 21 22 23 24 25 26 27 26 26 26 26 26 26 26
15 14 14 13 13 13 13 12 12 12 12 12 12 12 13 13 14 14 13 13 12 11 10 10 12 13 15 17 20 22 23 24 26 27 27 28 29 29 29 28 29 30 31
19 18 18 17 17 17 18 18 17 16 16 15 16 17 17 18 18 19 19 20 20 19 19 20 19 18 19 20 21 22 24 26 27 28 29 30 32 33 34 34 34 34 35
23 22 21 20 19 19 20 21 22 20 20 20 20 22 21 21 21 22 22 24 25 25 26 27 26 27 27 27 27 27 27 28 29 31 32 33 34 36 36 37 38 39 39
25 24 23 22 20 19 21 24 24 27 27 27 27 28 26 25 26 26 27 27 29 29 30 32 33 33 34 35 33 34 35 35 35 35 36 38 38 39 39 40 41 42 43
27 26 24 22 23 24 26 29 30 32 31 31 29 26 27 27 29 28 30 31 33 34 35 36 38 39 39 40 41 42 42 42 43 43 44 43 43 43 43 44 45 45 44
29 26 23 24 24 31 36 34 32 29 28 29 31 30 32 33 34 35 35 37 39 41 41 42 42 45 46 46 48 49 49 48 51 53 53 52 52 51 50 48 48 49 49
31 29 28 29 29 34 39 33 30 30 31 30 30 32 32 34 35 36 36 37 38 39 40 41 44 46 47 48 49 48 49 51 53 55 56 56 58 59 58 58 56 56 54
31 30 31 34 33 34 33 32 31 30 31 30 30 30 31 32 33 32 33 34 36 38 40 41 42 45 47 47 48 50 48 48 50 54 56 58 60 61 62 64 66 67 65
35 34 34 32 33 33 33 32 30 30 30 32 31 31 31 32 33 34 36 37 37 37 38 38 40 41 44 48 50 52 55 55 51 48 51 54 56 57 60 64 64 66 69
37 36 35 32 31 33 31 31 30 31 31 31 31 31 31 32 34 34 33 33 35 35 36 38 40 42 44 46 48 50 52 53 52 49 46 46 50 52 53 53 57 63 69
39 38 32 31 32 31 30 30 30 30 29 30 30 31 32 30 28 29 30 32 33 35 37 39 42 44 46 47 49 50 50 52 53 54 51 47 47 48 49 51 52 52 55
38 34 32 30 30 29 29 30 30 29 30 31 31 30 28 26 27 29 30 31 32 34 36 39 41 43 45 46 47 48 50 52 53 54 54 54 52 47 49 50 52 55 57
Wind_Direction
56 53 63 64 75 80 79 79 73 70 69 71 69 69 69 64 67 68 68 69 73 78 82 92 107 119 130 139 153 166 170 170 170 169 167 166 160 163 162 154 145 146 214
64 64 64 64 61 79 85 83 82 73 69 69 70 68 69 71 71 71 72 72 74 85 96 106 114 125 134 146 158 170 166 164 166 162 159 153 158 153 138 137 151 229 236
68 71 70 67 64 66 77 83 82 79 73 70 68 71 75 82 83 84 81 79 82 88 100 111 118 128 137 143 150 160 160 170 168 163 155 152 148 142 152 205 254 259 222
70 77 77 74 70 70 70 74 77 77 77 77 74 75 79 85 87 94 98 101 98 93 108 116 130 134 145 153 160 160 169 171 167 161 159 151 154 160 183 242 263 244 244
76 77 77 80 77 74 74 72 71 72 70 71 70 67 61 64 78 96 105 117 126 132 124 120 126 135 152 165 165 173 186 175 167 160 157 163 176 192 220 240 245 257 253
71 74 77 75 77 77 76 76 74 72 69 67 64 64 67 71 76 89 123 125 128 142 153 154 153 145 156 169 179 182 184 171 163 165 174 188 204 229 249 246 252 259 268
60 67 70 75 76 75 78 80 78 76 74 73 71 66 63 68 75 88 97 112 131 141 154 173 171 176 181 178 184 178 171 167 172 184 195 208 224 249 257 247 250 255 262
50 57 64 66 71 76 77 79 81 80 79 77 75 73 72 71 72 73 79 91 112 127 148 145 153 171 172 180 181 171 171 180 194 206 218 234 248 256 258 259 270 270 270
55 55 52 56 61 64 70 76 79 79 76 70 68 72 72 70 73 79 85 81 79 84 96 119 137 150 153 158 165 175 190 202 216 226 239 248 255 259 257 261 271 272 260
41 51 50 51 51 56 58 56 62 71 78 77 70 58 53 61 67 68 62 67 84 92 92 106 118 137 157 171 186 198 211 220 231 238 247 254 259 259 260 264 262 258 244
352 29 38 41 39 39 45 50 50 50 52 60 70 74 67 50 36 29 27 13 333 318 280 242 235 235 236 237 239 238 241 246 254 259 261 263 264 269 274 273 263 248 248
300 316 339 358 9 17 22 28 32 32 29 27 30 36 40 37 34 22 3 339 312 288 277 274 268 265 263 260 260 265 267 266 263 264 269 272 273 276 272 265 262 267 265
283 289 298 303 308 323 332 347 356 356 359 2 7 10 10 20 31 33 14 349 329 314 303 296 288 280 275 271 271 274 276 278 280 281 280 278 278 278 274 270 269 263 263
280 285 290 292 297 302 304 310 313 315 318 319 322 323 322 323 324 323 315 311 314 315 310 301 294 289 284 280 282 282 279 276 277 281 282 280 278 275 275 277 275 273 273
280 284 285 288 291 295 296 293 294 296 296 297 300 302 300 301 303 305 304 302 298 293 285 279 275 273 274 275 276 276 277 279 281 284 284 285 285 284 280 276 276 276 276
277 278 280 283 289 292 294 295 293 291 290 290 291 289 288 290 293 291 292 293 294 295 294 291 287 284 279 273 271 270 272 273 274 275 276 278 279 280 280 279 278 276 276
276 276 277 281 285 288 291 292 293 292 295 295 292 291 290 288 285 284 285 286 285 284 284 285 285 284 283 282 281 282 279 277 274 274 273 272 270 269 270 272 274 275 273
273 274 277 280 282 287 288 287 285 289 291 290 290 289 290 288 287 287 286 283 283 282 281 280 278 278 277 277 278 279 280 282 281 277 277 274 272 272 271 271 270 270 273
267 269 273 279 289 291 291 291 291 290 289 289 289 292 291 287 285 287 288 285 285 284 282 282 283 282 280 281 278 278 279 277 275 276 275 277 276 275 275 274 273 270 270
263 263 266 274 280 288 294 288 284 284 284 284 286 287 287 286 286 287 288 289 291 292 292 292 292 290 289 287 286 287 285 282 281 281 280 276 275 274 274 275 276 277 277
259 260 264 269 279 284 283 276 277 277 278 280 282 283 284 284 286 286 288 289 289 291 291 290 290 290 289 287 286 285 283 282 281 280 279 277 277 276 276 274 272 271 271
262 263 270 276 283 276 271 271 273 274 277 282 282 283 285 285 287 290 290 290 289 289 289 290 291 291 291 290 288 286 284 284 285 284 282 279 276 274 272 273 275 275 273
259 266 274 279 278 271 272 273 275 277 279 279 282 284 285 288 290 292 294 295 296 296 296 296 296 296 295 293 291 290 288 287 287 286 285 284 281 278 275 272 270 267 270
264 267 277 271 266 268 268 270 273 274 276 280 280 281 284 285 287 289 290 292 294 298 300 302 302 302 301 301 300 299 297 296 290 286 290 289 287 286 284 279 273 270 267
265 271 264 259 262 263 267 269 270 272 274 275 278 279 278 278 281 286 293 298 301 303 305 307 307 306 305 302 300 300 299 298 296 293 290 288 291 292 292 291 288 284 279
262 257 257 262 263 265 268 269 269 270 272 274 274 273 276 283 288 294 297 300 302 305 308 309 309 309 307 304 302 298 297 297 297 296 294 292 290 287 288 286 285 285 284